Total_Precipitation_Accumulation
0.00 0.00 0.00 0.00 0.00 0.00 0.00 0.02 0.03 0.04 0.08 0.08 0.07 0.19 0.26 0.27 0.22 0.37 0.33 0.24 0.09 0.06 0.03 0.00 0.00 0.00 0.00 0.00 0.00 0.00 0.00 0.00 0.00 0.00 0.00 0.00 0.00 0.00 0.00 0.00 0.00 0.00 0.00
0.00 0.00 0.00 0.00 0.00 0.00 0.00 0.00 0.00 0.01 0.02 0.03 0.07 0.16 0.49 0.42 0.54 0.55 0.32 0.26 0.28 0.31 0.13 0.04 0.01 0.00 0.00 0.00 0.00 0.00 0.00 0.00 0.00 0.01 0.02 0.02 0.00 0.00 0.00 0.00 0.00 0.00 0.00
0.00 0.00 0.00 0.00 0.00 0.00 0.00 0.00 0.00 0.00 0.00 0.01 0.06 0.14 0.33 0.35 0.30 0.23 0.18 0.14 0.33 0.53 0.27 0.17 0.10 0.05 0.07 0.07 0.03 0.05 0.05 0.05 0.02 0.01 0.04 0.07 0.03 0.02 0.00 0.00 0.00 0.00 0.00
0.00 0.00 0.00 0.00 0.00 0.00 0.00 0.00 0.00 0.00 0.00 0.00 0.02 0.03 0.11 0.17 0.16 0.23 0.31 0.26 0.33 0.51 0.40 0.31 0.25 0.17 0.15 0.15 0.16 0.12 0.11 0.12 0.10 0.05 0.02 0.04 0.06 0.09 0.06 0.01 0.01 0.01 0.01
0.00 0.00 0.00 0.00 0.00 0.00 0.00 0.00 0.00 0.00 0.00 0.00 0.00 0.02 0.14 0.17 0.18 0.21 0.20 0.23 0.26 0.30 0.37 0.34 0.33 0.21 0.26 0.24 0.19 0.15 0.12 0.10 0.09 0.08 0.08 0.06 0.06 0.07 0.11 0.10 0.02 0.01 0.01
0.00 0.00 0.00 0.00 0.00 0.00 0.00 0.00 0.00 0.00 0.00 0.00 0.00 0.01 0.04 0.13 0.18 0.15 0.16 0.20 0.21 0.20 0.22 0.24 0.28 0.25 0.23 0.23 0.22 0.21 0.14 0.12 0.13 0.12 0.12 0.15 0.18 0.15 0.18 0.16 0.07 0.05 0.02
0.00 0.00 0.00 0.00 0.00 0.00 0.00 0.00 0.00 0.00 0.00 0.00 0.01 0.01 0.01 0.05 0.09 0.10 0.11 0.14 0.14 0.12 0.12 0.19 0.22 0.20 0.22 0.23 0.20 0.21 0.17 0.15 0.17 0.20 0.18 0.17 0.18 0.18 0.24 0.29 0.19 0.16 0.09
0.00 0.00 0.00 0.00 0.00 0.00 0.00 0.00 0.00 0.00 0.00 0.00 0.00 0.00 0.03 0.04 0.07 0.08 0.08 0.10 0.14 0.15 0.16 0.18 0.24 0.25 0.25 0.22 0.18 0.19 0.18 0.20 0.24 0.24 0.20 0.19 0.17 0.20 0.25 0.31 0.35 0.31 0.22
0.00 0.00 0.00 0.00 0.00 0.00 0.00 0.00 0.00 0.00 0.00 0.03 0.02 0.01 0.02 0.04 0.06 0.09 0.11 0.11 0.12 0.15 0.18 0.20 0.21 0.21 0.21 0.21 0.20 0.19 0.17 0.18 0.21 0.21 0.22 0.24 0.23 0.27 0.31 0.41 0.56 0.79 0.83
0.00 0.00 0.00 0.00 0.00 0.00 0.00 0.00 0.00 0.00 0.01 0.01 0.00 0.01 0.03 0.05 0.06 0.06 0.07 0.09 0.11 0.10 0.12 0.12 0.12 0.12 0.11 0.11 0.13 0.15 0.16 0.19 0.21 0.27 0.32 0.34 0.36 0.40 0.44 0.47 0.51 0.65 0.80
0.00 0.00 0.00 0.00 0.00 0.00 0.00 0.00 0.00 0.00 0.01 0.00 0.00 0.02 0.03 0.04 0.06 0.04 0.04 0.05 0.05 0.05 0.05 0.06 0.06 0.05 0.04 0.03 0.04 0.07 0.09 0.13 0.18 0.22 0.29 0.33 0.36 0.47 0.56 0.63 0.74 0.83 0.91
0.00 0.00 0.00 0.00 0.00 0.00 0.00 0.00 0.00 0.00 0.00 0.00 0.00 0.01 0.02 0.04 0.05 0.05 0.03 0.03 0.03 0.02 0.01 0.01 0.01 0.01 0.01 0.01 0.02 0.03 0.04 0.05 0.06 0.10 0.19 0.26 0.33 0.42 0.47 0.51 0.50 0.48 0.45
0.00 0.00 0.00 0.00 0.00 0.00 0.00 0.00 0.01 0.00 0.00 0.00 0.00 0.00 0.00 0.00 0.01 0.01 0.02 0.03 0.03 0.01 0.01 0.01 0.01 0.00 0.00 0.00 0.00 0.01 0.04 0.06 0.08 0.12 0.18 0.19 0.23 0.28 0.27 0.26 0.27 0.27 0.31
0.00 0.00 0.02 0.01 0.00 0.00 0.01 0.02 0.01 0.01 0.01 0.01 0.01 0.01 0.02 0.02 0.01 0.01 0.01 0.02 0.02 0.02 0.01 0.01 0.01 0.00 0.00 0.01 0.02 0.04 0.07 0.09 0.09 0.10 0.13 0.18 0.23 0.24 0.20 0.16 0.19 0.24 0.34
0.00 0.00 0.14 0.18 0.03 0.02 0.01 0.01 0.02 0.03 0.03 0.03 0.03 0.04 0.03 0.02 0.02 0.02 0.01 0.01 0.02 0.01 0.01 0.02 0.02 0.02 0.02 0.05 0.07 0.08 0.12 0.16 0.19 0.22 0.26 0.26 0.23 0.16 0.14 0.15 0.17 0.32 0.41
0.01 0.00 0.02 0.20 0.16 0.02 0.01 0.03 0.03 0.04 0.07 0.06 0.05 0.03 0.03 0.02 0.02 0.02 0.01 0.01 0.02 0.03 0.07 0.10 0.13 0.14 0.17 0.29 0.26 0.24 0.26 0.30 0.33 0.34 0.31 0.26 0.21 0.14 0.12 0.13 0.19 0.34 0.65
0.01 0.01 0.00 0.00 0.04 0.17 0.12 0.12 0.14 0.21 0.19 0.12 0.07 0.05 0.05 0.10 0.09 0.10 0.07 0.06 0.06 0.08 0.13 0.22 0.35 0.54 0.70 0.79 0.74 0.65 0.64 0.65 0.52 0.33 0.22 0.12 0.08 0.06 0.05 0.09 0.16 0.33 0.61
0.02 0.01 0.00 0.00 0.00 0.00 0.01 0.02 0.04 0.07 0.19 0.19 0.24 0.16 0.18 0.31 0.55 0.45 0.42 0.38 0.31 0.24 0.27 0.30 0.32 0.41 0.46 0.40 0.30 0.24 0.18 0.13 0.09 0.05 0.02 0.02 0.02 0.04 0.06 0.14 0.39 0.35 0.21
0.01 0.01 0.00 0.00 0.01 0.01 0.01 0.02 0.03 0.05 0.03 0.08 0.11 0.15 0.44 0.54 0.49 0.31 0.49 0.48 0.39 0.43 0.48 0.46 0.37 0.30 0.21 0.14 0.10 0.07 0.06 0.05 0.03 0.01 0.01 0.05 0.03 0.03 0.13 0.37 0.41 0.19 0.13
0.02 0.01 0.00 0.01 0.03 0.03 0.03 0.05 0.04 0.05 0.12 0.09 0.07 0.27 0.70 0.56 0.44 0.23 0.40 0.50 0.38 0.29 0.30 0.29 0.20 0.14 0.08 0.06 0.04 0.04 0.05 0.03 0.01 0.02 0.02 0.03 0.04 0.10 0.37 0.27 0.24 0.26 0.17
0.15 0.08 0.07 0.08 0.18 0.15 0.21 0.27 0.22 0.35 0.44 0.27 0.22 0.42 0.47 0.46 0.36 0.28 0.30 0.28 0.26 0.16 0.11 0.12 0.08 0.04 0.02 0.01 0.00 0.01 0.02 0.03 0.14 0.11 0.03 0.03 0.14 0.35 0.21 0.16 0.19 0.22 0.27
0.35 0.50 0.30 0.37 0.54 0.56 0.74 0.74 0.68 0.66 0.57 0.41 0.35 0.32 0.26 0.25 0.25 0.12 0.09 0.06 0.03 0.02 0.02 0.01 0.01 0.00 0.00 0.00 0.00 0.01 0.03 0.07 0.10 0.05 0.02 0.09 0.23 0.09 0.05 0.09 0.18 0.32 0.31
0.03 0.18 0.11 0.17 0.23 0.30 0.35 0.48 0.40 0.33 0.32 0.22 0.16 0.12 0.11 0.10 0.06 0.03 0.03 0.02 0.01 0.00 0.00 0.00 0.00 0.00 0.00 0.00 0.00 0.00 0.07 0.09 0.07 0.05 0.16 0.15 0.03 0.03 0.04 0.10 0.17 0.16 0.15
0.01 0.01 0.02 0.01 0.03 0.05 0.08 0.10 0.03 0.04 0.06 0.06 0.06 0.04 0.02 0.01 0.00 0.00 0.00 0.00 0.00 0.00 0.00 0.00 0.00 0.00 0.00 0.00 0.00 0.03 0.05 0.04 0.08 0.17 0.14 0.02 0.03 0.05 0.06 0.08 0.07 0.07 0.17
0.00 0.01 0.00 0.00 0.00 0.00 0.00 0.00 0.00 0.00 0.00 0.00 0.00 0.00 0.00 0.00 0.00 0.00 0.00 0.00 0.00 0.00 0.00 0.00 0.01 0.01 0.01 0.01 0.04 0.06 0.05 0.09 0.16 0.07 0.01 0.01 0.02 0.02 0.02 0.04 0.06 0.11 0.24
0.00 0.00 0.00 0.00 0.00 0.00 0.00 0.00 0.00 0.00 0.00 0.00 0.00 0.00 0.00 0.00 0.00 0.00 0.00 0.00 0.00 0.00 0.00 0.00 0.01 0.01 0.02 0.03 0.05 0.05 0.12 0.16 0.07 0.05 0.03 0.04 0.05 0.08 0.09 0.11 0.15 0.20 0.32